Location: NJAA Observatory
(40.6819°N, 74.8979°W)
Time: 06:08:50
(UTC-04:00)

Transit 2A Rocket - Visible Passes

Search period start: 29 September 2016 00:00
Search period end: 09 October 2016 00:00
Orbit: 586 x 918 km, 66.7° (Epoch: 28 September)

Date Brightness Start Highest point End Pass type
(mag) Time Alt. Az. Time Alt. Az. Time Alt. Az.
29 Sep 7.2 21:41:29 10° N 21:43:10 17° N 21:43:10 17° N visible
30 Sep 7.1 20:59:46 10° N 21:01:53 15° NNE 21:01:53 15° NNE visible
30 Sep 7.8 22:41:13 10° NNW 22:41:48 13° NNW 22:41:48 13° NNW visible
01 Oct 7.2 20:18:52 10° NNE 20:20:09 11° NNE 20:20:38 11° NE visible
01 Oct 7.2 21:58:56 10° NNW 22:00:33 19° NNW 22:00:33 19° NNW visible
02 Oct 6.7 21:16:49 10° NNW 21:19:20 23° N 21:19:20 23° N visible
03 Oct 6.6 20:34:55 10° N 20:38:10 20° NNE 20:38:10 20° NNE visible
03 Oct 7.5 22:16:54 10° NW 22:18:05 17° NW 22:18:05 17° NW visible
04 Oct 6.8 19:53:22 10° N 19:56:07 14° NE 19:57:02 13° NE visible
04 Oct 6.7 21:34:28 10° NNW 21:36:57 27° NNW 21:36:57 27° NNW visible
05 Oct 5.9 20:52:15 10° NNW 20:55:52 35° NNE 20:55:52 35° NNE visible
05 Oct 8.0 22:35:41 10° WNW 22:35:47 10° WNW 22:35:47 10° WNW visible
06 Oct 6.0 20:10:12 10° N 20:14:45 28° NE 20:14:49 28° NE visible
06 Oct 7.1 21:52:42 10° NW 21:54:45 22° NW 21:54:45 22° NW visible
07 Oct 6.5 19:28:24 10° N 19:32:01 18° NE 19:33:51 15° ENE visible
07 Oct 5.8 21:10:06 10° NNW 21:13:48 44° NW 21:13:48 44° NW visible
08 Oct 4.8 20:27:45 10° NNW 20:32:54 65° NE 20:32:54 65° NE visible
08 Oct 7.8 22:12:13 10° WNW 22:12:50 12° WNW 22:12:50 12° WNW visible
